C/2023 T2 ( Borisov )

Japanese version
Home page
Updated on May 15, 2024

---------------------------------------------------------------------

* Profile

Discovery Date October 14, 2023
Magnitude 19.4 mag
Discoverer Gennady Borisov (MARGO observatory near Nauchnij, Crimea)

* Pictures

* Orbital Elements

Epoch 2024 Mar. 31.0 TT = JDT 2460400.5
T 2023 Dec. 22.79242 TT                                 Rudenko
q   1.9954508            (2000.0)            P               Q
z  +0.0043739      Peri.  111.19518     +0.14961856     -0.84919522
 +/-0.0000010      Node   317.53219     +0.36308876     +0.52360833
e   0.9912721      Incl.   48.59787     +0.91966344     -0.06856958
>From 370 observations 2023 Aug. 14-2024 Apr. 5, mean residual 0".5.

* Magnitudes Graph

        m1 = 13.5 + 5 log d + 10.0 log r

---------------------------------------------------------------------

The orbital elements are published on M.P.E.C. 2024-G193.
The magnitudes graphs are made with Comet for Windows.

---------------------------------------------------------------------

Copyright(C) Seiichi Yoshida (comet@aerith.net). All rights reserved.